Overview Statistics Trail Chart Weather Telemetry Raw packets
 

This is the latest recevied weather packets stored in our database for station/object KC1BRV. If no packets are shown the sender has not sent any weather packets the latest 10 day(s).

<< 90 91 92 93 94 95 96 >>
Time Temp. Humidity Pressure Rain* Wind** Luminosity Snow
1787949825 27.78° C 67% 1015.8 hPa 0 mm - 86 W/m² -
1787949524 27.78° C 67% 1015.9 hPa 0 mm - 99 W/m² -
1787949220 28.33° C 67% 1015.9 hPa 0 mm - 111 W/m² -
1787948915 28.33° C 66% 1016 hPa 0 mm - 127 W/m² -
1787948610 28.33° C 68% 1016 hPa 0 mm - 124 W/m² -
1787948306 27.78° C 69% 1016.2 hPa 0 mm - 161 W/m² -
1787948005 27.78° C 69% 1016.1 hPa 0 mm - 157 W/m² -
1787947704 27.78° C 70% 1016.1 hPa 0 mm - 128 W/m² -
1787947399 27.78° C 70% 1016 hPa 0 mm - 127 W/m² -
1787947099 27.78° C 70% 1016.1 hPa 0 mm - 151 W/m² -
1787946797 27.78° C 70% 1015.9 hPa 0 mm - 150 W/m² -
1787946495 27.78° C 72% 1016 hPa 0 mm - 145 W/m² -
1787946191 27.78° C 72% 1016.1 hPa 0 mm - 137 W/m² -
1787945891 28.33° C 68% 1016.1 hPa 0 mm - 130 W/m² -
1787945586 28.33° C 69% 1016.2 hPa 0 mm - 185 W/m² -
1787945286 27.78° C 68% 1016.2 hPa 0 mm - 174 W/m² -
1787944988 27.78° C 69% 1016.1 hPa 0 mm - 169 W/m² -
1787944678 28.33° C 68% 1016.1 hPa 0 mm - 128 W/m² -
1787944375 28.89° C 65% 1016.1 hPa 0 mm - 122 W/m² -
1787944069 28.89° C 66% 1016.1 hPa 0 mm - 536 W/m² -
1787943764 28.89° C 68% 1016.2 hPa 0 mm - 519 W/m² -
1787943460 28.89° C 67% 1016.1 hPa 0 mm - 401 W/m² -
1787943156 28.33° C 67% 1016.3 hPa 0 mm - 415 W/m² -
1787942850 27.78° C 69% 1016.4 hPa 0 mm - 540 W/m² -
1787942546 27.22° C 72% 1016.3 hPa 0 mm - 446 W/m² -

* Rain latest hour (hover to see other rain measurements)
** Current wind speed in m/s (hover to see current wind gust speed)